This demonstration page uses our WeatherBlox Daily Observations layout. Learn more.

Left ArrowRight Arrow

Hourly Observations for November 18, 2015

Temp ( °F °C ) Dew Point ( °F °C ) Humidity (%) Winds ( mph kmh ) Pressure ( in mb ) Visibility ( mi km ) Precip ( " mm )
12:53 am 00:53 Clear 42 5.6 29 -1.7 60 60 W 8 13 29.77 1008 10 16 0.00 0.00
2:53 am 02:53 Clear 41 5 29 -1.7 62 62 W 10 17 29.76 1008 10 16 0.00 0.00
3:53 am 03:53 Clear 41 5 28 -2.2 60 60 WSW 9 15 29.76 1008 10 16 0.00 0.00
4:53 am 04:53 Clear 39 3.9 28 -2.2 65 65 W 8 13 29.77 1008 10 16 0.00 0.00
5:53 am 05:53 Clear 37 2.8 28 -2.2 70 70 WSW 8 13 29.78 1009 10 16 0.00 0.00
6:53 am 06:53 Clear 34 1.1 26 -3.3 73 73 NW 3 6 29.82 1010 10 16 0.00 0.00
7:53 am 07:53 Sunny 38 3.3 27 -2.8 65 65 SW 8 13 29.82 1010 10 16 0.00 0.00
8:53 am 08:53 Sunny 48 8.9 26 -3.3 42 42 WSW 16 26 29.81 1009 10 16 0.00 0.00
9:53 am 09:53 Sunny 53 11.7 26 -3.3 35 35 W 15 24 29.80 1009 10 16 0.00 0.00
10:53 am 10:53 Sunny 59 15 25 -3.9 27 27 WSW 17 28 29.78 1009 10 16 0.00 0.00
11:53 am 11:53 Sunny 64 17.8 25 -3.9 23 23 W 14 22 29.75 1008 10 16 0.00 0.00
12:53 pm 12:53 Sunny 67 19.4 25 -3.9 20 20 W 24 39 29.72 1006 10 16 0.00 0.00
3:53 pm 15:53 Sunny 71 21.7 25 -3.9 18 18 W 20 31 29.67 1005 10 16 0.00 0.00
4:53 pm 16:53 Sunny 71 21.7 24 -4.4 17 17 W 16 26 29.68 1005 10 16 0.00 0.00
5:53 pm 17:53 Clear 65 18.3 25 -3.9 22 22 WSW 8 13 29.71 1006 10 16 0.00 0.00
6:53 pm 18:53 Clear 63 17.2 24 -4.4 23 23 WSW 13 20 29.74 1007 10 16 0.00 0.00
7:53 pm 19:53 Clear 58 14.4 25 -3.9 28 28 WSW 10 17 29.78 1008 10 16 0.00 0.00
8:53 pm 20:53 Clear 52 11.1 26 -3.3 37 37 WSW 5 7 29.83 1010 10 16 0.00 0.00
9:53 pm 21:53 Clear 46 7.8 27 -2.8 47 47 Calm 29.86 1011 10 16 0.00 0.00
10:53 pm 22:53 Clear 45 7.2 28 -2.2 52 52 SSE 5 7 29.88 1012 10 16 0.00 0.00
11:53 pm 23:53 Clear 40 4.4 28 -2.2 63 63 N 5 7 29.92 1013 10 16 0.00 0.00

Powered by AerisWeather